Location: Unspecified
(0.0000°N, 0.0000°E)
Time: 14:09:51
(UTC+00:00)

Vanguard 3 - Pass Details

Date: 14 December 2025
Orbit: 507 x 3207 km, 33.3° (Epoch: 22 January)

Event Time Altitude Azimuth Distance (km) Brightness Sun altitude
Rises 19:54:13 0° 314° (NW) 2,597 10.0 -27.2°
Enters shadow 19:55:55 - 319° (NW) 1,890 9.2 -27.6°
Reaches altitude 10° 19:56:12 10° 320° (NW) 1,773 - -27.6°
Maximum altitude 19:59:58 53° 38° (NE) 769 - -28.5°
Drops below altitude 10° 20:05:17 10° 115° (ESE) 2,498 - -29.7°
Sets 20:08:34 0° 119° (ESE) 3,817 - -30.4°
